Location: T. Spence Memorial Observatory
(32.7356°N, 82.2098°W)
Time: 17:23:32
(UTC-05:00)

Cosmos 2219 - Visible Passes

Search period start: 29 January 2015 00:00
Search period end: 08 February 2015 00:00
Orbit: 832 x 862 km, 71.1° (Epoch: 28 January)

Date Brightness Start Highest point End Pass type
(mag) Time Alt. Az. Time Alt. Az. Time Alt. Az.
29 Jan 6.1 05:45:46 10° SE 05:49:24 18° E 05:53:19 10° ENE visible
30 Jan 6.0 05:32:28 10° SE 05:36:01 18° E 05:39:52 10° ENE visible
31 Jan 6.0 05:19:11 10° SE 05:22:39 17° E 05:26:25 10° ENE visible
01 Feb 6.0 05:05:54 10° SE 05:09:16 17° E 05:12:57 10° ENE visible
01 Feb 3.4 06:47:30 10° SW 06:53:03 52° WNW 06:58:38 10° N visible
02 Feb 5.9 04:52:37 10° SE 04:55:54 16° E 04:59:30 10° ENE visible
02 Feb 3.3 06:34:06 10° SW 06:39:39 53° WNW 06:45:16 10° N visible
03 Feb 5.9 04:39:20 10° SE 04:42:31 16° E 04:46:02 10° ENE visible
03 Feb 3.3 06:20:42 10° SW 06:26:16 55° WNW 06:31:54 10° N visible
04 Feb 5.9 04:26:04 10° SE 04:29:09 16° E 04:32:34 10° ENE visible
04 Feb 3.3 06:07:17 10° SW 06:12:53 56° WNW 06:18:32 10° N visible
05 Feb 5.9 04:12:48 10° SE 04:15:46 15° E 04:19:05 10° ENE visible
05 Feb 3.2 05:53:53 10° SW 05:59:30 58° WNW 06:05:09 10° NNE visible
06 Feb 5.8 03:59:49 11° SE 04:02:24 15° E 04:05:36 10° ENE visible
06 Feb 3.2 05:41:59 19° SW 05:46:06 59° WNW 05:51:47 10° NNE visible
07 Feb 5.8 03:49:15 14° E 03:49:15 14° E 03:52:08 10° ENE visible
07 Feb 3.2 05:31:19 47° WSW 05:32:43 61° WNW 05:38:25 10° NNE visible
